This is the latest recevied weather packets stored in our database for station/object IZ7EXI-13. If no packets are shown the sender has not sent any weather packets the latest 10 day(s).
| Time | Temp. | Humidity | Pressure | Rain* | Wind** | Luminosity | Snow |
|---|---|---|---|---|---|---|---|
| 1777574254 | 16.11° C | 61% | 1023.7 hPa | - | - | - | - |
| 1777573353 | 16.11° C | 66% | 1023.6 hPa | - | - | - | - |
| 1777572453 | 16.11° C | 66% | 1023.4 hPa | - | - | - | - |
| 1777571553 | 16.67° C | 65% | 1023.3 hPa | - | - | - | - |
| 1777570652 | 17.22° C | 62% | 1023.2 hPa | - | - | - | - |
| 1777569752 | 17.22° C | 60% | 1023.1 hPa | - | - | - | - |
| 1777568852 | 17.78° C | 57% | 1022.9 hPa | - | - | - | - |
| 1777567951 | 17.22° C | 58% | 1022.9 hPa | - | - | - | - |
| 1777567051 | 17.22° C | 60% | 1022.7 hPa | - | - | - | - |
| 1777566151 | 17.22° C | 60% | 1022.7 hPa | - | - | - | - |
| 1777565251 | 17.22° C | 59% | 1022.7 hPa | - | - | - | - |
| 1777564350 | 17.22° C | 59% | 1022.8 hPa | - | - | - | - |
| 1777563450 | 17.78° C | 61% | 1022.7 hPa | - | - | - | - |
| 1777562550 | 18.33° C | 59% | 1022.8 hPa | - | - | - | - |
| 1777561650 | 18.33° C | 59% | 1022.6 hPa | - | - | - | - |
| 1777560749 | 18.33° C | 61% | 1022.6 hPa | - | - | - | - |
| 1777560277 | 17.78° C | 66% | 1022.6 hPa | - | - | - | - |
| 1777559849 | 17.78° C | 66% | 1022.6 hPa | - | - | - | - |
| 1777558949 | 17.22° C | 69% | 1022.5 hPa | - | - | - | - |
| 1777558049 | 17.78° C | 68% | 1022.5 hPa | - | - | - | - |
| 1777557149 | 17.78° C | 68% | 1022.5 hPa | - | - | - | - |
| 1777556248 | 17.22° C | 71% | 1022.5 hPa | - | - | - | - |
| 1777555348 | 16.67° C | 71% | 1022.5 hPa | - | - | - | - |
| 1777554448 | 16.67° C | 72% | 1022.6 hPa | - | - | - | - |
| 1777553548 | 16.67° C | 72% | 1022.6 hPa | - | - | - | - |
* Rain since midnight (hover to see other rain measurements)
** Current wind speed in m/s (hover to see current wind gust speed)